[[{"header":{"parameterUnit":"m.s-1","parameterCategory":1,"la1":30.2991,"la2":30.254,"lo1":-89.0895,"lo2":-89.0444,"dy":0.0017,"dx":0.0017,"nx":28,"ny":28,"refTime":"2025-11-30T03:00:00:Z","depth":0,"parameterNumber":2,"parameterNumberName":"U-component_of_WINDS"},"data":[0,0,0,0,0,0,0,0,0,0,0,0,0,0,0,0,0,0,0,0,0,0,0,0,0,0,0,0,0,0,0,0,0,0,0,0,0,0,0,0,0,0,0,0,0,0,0,0,0,0,0,0,0,0,0,0,0,0,-6.9185,-6.9186,0,-6.9302,-6.9303,-6.9304,-6.9216,-6.9212,-6.9209,-6.9205,-6.932,-6.9326,-6.9333,0,0,0,0,0,0,0,0,0,0,0,0,0,-6.888,-6.8886,-6.9185,-6.9186,-6.9188,-6.9302,-6.9303,-6.9305,-6.9217,-6.9212,-6.9208,-6.9203,-6.9317,-6.9325,-6.9333,0,0,0,0,0,0,0,0,0,0,0,0,0,-6.9006,-6.8888,-6.9184,-6.9158,-6.9156,-6.9301,-6.9303,-6.9305,-6.9218,-6.9212,-6.9206,-6.9201,-6.9315,-6.9325,-6.9334,-6.951,0,0,-6.9365,-6.9369,0,0,0,0,0,0,0,0,-6.8999,-6.9018,-6.916,-6.916,-6.9159,-6.9239,-6.9238,-6.9374,-6.9219,-6.9194,-6.9205,-6.9198,-6.9297,-6.9308,-6.9342,-6.9516,-6.952,-6.9365,-6.9372,-6.9376,-6.9379,0,0,0,0,0,0,0,-6.8991,-6.9012,-6.9231,-6.9162,-6.9161,-6.9138,-6.915,-6.9263,-6.9276,-6.9196,-6.919,-6.9205,-6.9295,-6.9333,-6.9344,-6.9522,-6.9365,-6.9374,-6.938,-6.9384,-6.9843,-6.9849,0,0,0,0,0,0,-6.8985,-6.9005,-6.9227,-6.9234,-6.9063,-6.9148,-6.9161,-6.9219,-6.9275,-6.9278,-6.921,-6.9201,-6.9319,-6.9333,-6.9348,-6.9554,-6.9376,-6.9385,-6.9391,-6.9837,-6.9844,-6.9851,0,0,0,0,0,0,-6.8979,-6.9006,-6.9222,-6.9118,-6.9144,-6.916,-6.9225,-6.9224,-6.9261,-6.9285,-6.9287,-6.9246,-6.9315,-6.9334,-6.947,-6.9557,-6.9389,-6.9398,-6.9829,-6.9839,-6.9848,-6.997,0,0,0,0,0,0,-6.8971,-6.9004,-6.9072,-6.9121,-6.915,-6.9344,-6.923,-6.923,-6.9279,-6.9268,-6.932,-6.9323,-6.9312,-6.9456,-6.948,-6.9568,-6.9406,-6.9821,-6.9834,-6.9845,-6.9958,-6.9982,-7.0003,0,0,0,0,0,-6.896,-6.9101,-6.9076,-6.9103,-6.9235,-6.9349,-6.9366,-6.9352,-6.9287,-6.9354,-6.937,-6.9321,-6.9546,-6.9471,-6.9497,-6.9589,-6.9816,-6.983,-6.9844,-6.9948,-6.9978,-7.0003,0,0,0,0,0,0,-6.906,-6.9107,-6.9079,-6.9241,-6.9292,-6.9334,-6.9418,-6.9384,-6.9453,-6.944,-6.9419,-6.9431,-6.9573,-6.9596,-6.9512,-6.9761,-6.967,-6.969,-6.974,-6.9768,-6.979,-6.9779,-6.9414,0,0,0,0,0,-6.9101,-6.9192,-6.9227,-6.9366,-6.9394,-6.9402,-6.9451,-6.9437,-6.9488,-6.9508,-6.9534,-6.9584,-6.9665,-6.9719,-6.9796,-6.9964,-6.9971,-7.004,-7.0062,-7.0081,-7.0096,-7.0183,-7.0213,-6.9897,-6.9897,-6.9897,0,0,-6.9186,-6.9223,-6.9281,-6.9387,-6.9425,-6.9516,-6.942,-6.9522,-6.9588,-6.9523,-6.9652,-6.9674,-6.9728,-6.988,-6.9948,-6.9903,-7.0186,-7.0099,-7.0113,-7.0118,-7.02,-7.023,-7.0257,-6.9907,-6.9905,-6.9903,0,0,-6.9386,-6.9426,-6.9544,-6.9585,-6.9644,-6.9649,-6.9678,-6.9727,-6.9738,-6.9869,-6.9821,-6.99,-7.0042,-7.0082,-7.0121,-7.034,-7.0296,-7.0366,-7.048,-7.0566,-7.059,-7.0612,-7.0685,-7.0712,-7.0383,-7.0383,-7.0383,0,-6.9483,-6.962,-6.9608,-6.9713,-6.976,-6.9709,-6.9826,-6.9866,-6.9947,-6.998,-6.993,-7.0106,-7.014,-7.0298,-7.0352,-7.0387,-7.0416,-7.0356,-7.0588,-7.061,-7.063,-7.0699,-7.0728,-7.0391,-7.039,-7.0389,-7.0388,0,-6.9734,-6.9831,-6.9919,-7.0,-7.0058,-7.0169,-7.0172,-7.0232,-7.0214,-7.0224,-7.0356,-7.0396,-7.0478,-7.0516,-7.0499,-7.0673,-7.0642,-7.0592,-7.0498,-7.0668,-7.0732,-7.0759,-7.0402,-7.0399,-7.0397,-7.0395,0,0,-6.9994,-7.007,-7.0101,-7.0137,-7.02,-7.0273,-7.0383,-7.0465,-7.0515,-7.0574,-7.0662,-7.0785,-7.0738,-7.0782,-7.077,-7.0846,-7.1011,-7.0785,-7.0785,-7.082,-7.12,-7.1233,-7.1264,-7.0986,-7.0991,-7.0995,-7.1193,0,-7.0193,-7.0383,-7.0376,-7.0552,-7.0639,-7.0594,-7.0688,-7.0736,-7.075,-7.0825,-7.084,-7.0925,-7.0859,-7.0885,-7.0959,-7.0975,-7.1086,-7.0962,-7.1063,-7.1067,-7.1044,-7.1299,-7.1334,-7.1519,-7.1219,-7.1223,-7.1227,0,-7.0448,-7.0517,-7.0702,-7.0752,-7.0788,-7.0873,-7.0948,-7.1022,-7.1075,-7.108,-7.1132,-7.1107,-7.1216,-7.1126,-7.1272,-7.1188,-7.123,-7.1245,-7.1252,-7.1255,-7.1152,-7.1303,-7.1578,-7.1604,-7.1267,-7.1264,-7.1261,0,-7.0612,-7.0752,-7.088,-7.0912,-7.0976,-7.1036,-7.1065,-7.1113,-7.1163,-7.1229,-7.126,-7.1339,-7.1379,-7.1439,-7.1436,-7.1372,-7.1584,-7.1494,-7.1587,-7.1587,-7.1627,-7.1623,-7.1907,-7.1666,-7.1666,-7.1665,-7.1665,0,-7.083,-7.0944,-7.0954,-7.1032,-7.1157,-7.115,-7.1274,-7.1297,-7.1341,-7.1421,-7.1389,-7.1464,-7.1459,-7.1535,-7.1535,-7.1654,-7.1674,-7.1678,-7.1675,-7.1677,-7.1676,-7.1699,-7.1683,-7.1673,-7.1671,-7.167,-7.1668,0,-7.1031,-7.1043,-7.1179,-7.1229,-7.1244,-7.1334,-7.1376,-7.1449,-7.1462,-7.1564,-7.1587,-7.1607,-7.1695,-7.17,-7.1802,-7.1801,-7.1944,-7.1931,-7.1926,-7.1921,-7.2011,-7.2,-7.2313,-7.2352,-7.2093,-7.2095,-7.2097,0,-7.1166,-7.1252,-7.1313,-7.1365,-7.1398,-7.1483,-7.1534,-7.1531,-7.1585,-7.1655,-7.1719,-7.1805,-7.1872,-7.2015,-7.2036,-7.2114,-7.2098,-7.2203,-7.2108,-7.2107,-7.2092,-7.2084,-7.2091,-7.2218,-7.2221,-7.2223,-7.2225,0,-7.1402,-7.1405,-7.148,-7.1559,-7.1622,-7.1684,-7.1741,-7.1785,-7.1789,-7.1852,-7.1943,-7.1996,-7.2101,-7.2184,-7.226,-7.2288,-7.2256,-7.2256,-7.2281,-7.228,-7.2271,-7.2271,-7.1968,-7.2247,-7.2245,-7.2243,-7.2242,-7.2241,-7.157,-7.1643,-7.1697,-7.1783,-7.1827,-7.1881,-7.1952,-7.1975,-7.2051,-7.2136,-7.2131,-7.2231,-7.2282,-7.2381,-7.2416,-7.2492,-7.2456,-7.2493,-7.2501,-7.2508,-7.2515,-7.2266,-7.2507,-7.2506,-7.2506,-7.2505,-7.2505,0,-7.1799,-7.1832,-7.1912,-7.1993,-7.2061,-7.2031,-7.2093,-7.215,-7.2238,-7.2291,-7.2359,-7.2462,-7.2544,-7.2575,-7.2654,-7.2709,-7.2696,-7.2729,-7.2721,-7.2728,-7.2546,-7.2514,-7.2738,-7.2738,-7.2738,-7.2738,-7.2738,-7.2738,-7.1925,-7.2047,-7.2057,-7.22,-7.2232,-7.233,-7.2368,-7.2417,-7.2459,-7.2576,-7.2645,-7.2666,-7.2708,-7.2791,-7.2864,-7.2871,-7.2899,-7.2937,-7.2937,-7.2765,-7.2741,-7.2718,-7.2688,-7.2945,-7.2945,-7.3112,-7.3113,-7.3114]},{"header":{"parameterUnit":"m.s-1","parameterCategory":1,"la1":30.2991,"la2":30.254,"lo1":-89.0895,"lo2":-89.0444,"dy":0.0017,"dx":0.0017,"nx":28,"ny":28,"refTime":"2025-11-30T03:00:00:Z","depth":0,"parameterNumber":3,"parameterNumberName":"V-component_of_WINDS"},"data":[0,0,0,0,0,0,0,0,0,0,0,0,0,0,0,0,0,0,0,0,0,0,0,0,0,0,0,0,0,0,0,0,0,0,0,0,0,0,0,0,0,0,0,0,0,0,0,0,0,0,0,0,0,0,0,0,0,0,1.0305,1.0305,0,1.0295,1.0295,1.0295,1.0259,1.0258,1.0257,1.0256,1.0243,1.0243,1.0243,0,0,0,0,0,0,0,0,0,0,0,0,0,1.0291,1.0291,1.0305,1.0305,1.0304,1.0295,1.0295,1.0295,1.0259,1.0258,1.0257,1.0256,1.0242,1.0243,1.0243,0,0,0,0,0,0,0,0,0,0,0,0,0,1.029,1.0291,1.0305,1.0286,1.0284,1.0295,1.0295,1.0295,1.0259,1.0258,1.0257,1.0256,1.0242,1.0243,1.0243,1.0271,0,0,1.0245,1.0245,0,0,0,0,0,0,0,0,1.029,1.0291,1.0288,1.0287,1.0285,1.0277,1.0285,1.0287,1.0259,1.0268,1.0256,1.0255,1.0255,1.0254,1.0255,1.0271,1.027,1.0245,1.0246,1.0246,1.0246,0,0,0,0,0,0,0,1.029,1.0291,1.0301,1.0288,1.0286,1.0277,1.0276,1.0285,1.0268,1.0267,1.0265,1.0264,1.0253,1.0254,1.0254,1.027,1.0245,1.0246,1.0246,1.0246,1.0311,1.0312,0,0,0,0,0,0,1.0293,1.0291,1.0301,1.03,1.0285,1.0278,1.0277,1.0281,1.0268,1.0265,1.0265,1.0263,1.0254,1.0254,1.0254,1.0288,1.0246,1.0246,1.0247,1.0309,1.0311,1.0313,0,0,0,0,0,0,1.0293,1.0295,1.0301,1.0295,1.0295,1.028,1.0284,1.0281,1.0282,1.0267,1.0263,1.027,1.0253,1.0253,1.0268,1.0286,1.0247,1.0247,1.0308,1.031,1.0312,1.0354,0,0,0,0,0,0,1.0293,1.0295,1.0305,1.0296,1.0296,1.0317,1.0286,1.0282,1.0284,1.028,1.027,1.0267,1.0252,1.0268,1.0269,1.0287,1.0248,1.0306,1.0309,1.0311,1.0351,1.0357,1.0363,0,0,0,0,0,1.0293,1.0316,1.0306,1.0308,1.0309,1.0318,1.0318,1.0301,1.0285,1.0296,1.0286,1.0267,1.0284,1.0269,1.027,1.0289,1.0305,1.0308,1.0311,1.0348,1.0356,1.0363,0,0,0,0,0,0,1.0326,1.0314,1.0303,1.0324,1.0323,1.0312,1.0324,1.031,1.0311,1.0308,1.0286,1.0284,1.0303,1.0297,1.0281,1.0316,1.0292,1.0295,1.032,1.0327,1.0333,1.0334,1.0248,0,0,0,0,0,1.0337,1.0346,1.0334,1.0354,1.0354,1.034,1.0343,1.0331,1.0327,1.0326,1.0317,1.0314,1.0319,1.0322,1.0326,1.035,1.0348,1.0363,1.0369,1.0374,1.0377,1.0392,1.0399,1.0323,1.0323,1.0323,0,0,1.0357,1.0352,1.0358,1.0361,1.0358,1.0368,1.0339,1.0349,1.0357,1.0327,1.0342,1.0336,1.0331,1.0352,1.036,1.0347,1.0399,1.0378,1.0382,1.0383,1.0396,1.0403,1.041,1.0325,1.0324,1.0324,0,0,1.04,1.0396,1.0414,1.0413,1.041,1.04,1.0405,1.0396,1.0392,1.0407,1.0386,1.0393,1.0402,1.04,1.04,1.0446,1.0429,1.0447,1.0478,1.0493,1.0499,1.0504,1.0522,1.0528,1.045,1.0451,1.0451,0,1.0425,1.044,1.0424,1.0438,1.044,1.0416,1.0434,1.0433,1.043,1.0432,1.0418,1.0431,1.0425,1.0446,1.0458,1.0458,1.0463,1.0448,1.0499,1.0504,1.0509,1.0526,1.0533,1.0453,1.0453,1.0452,1.0452,0,1.0473,1.0483,1.0498,1.0499,1.0503,1.0518,1.0505,1.051,1.0499,1.0491,1.0508,1.0501,1.0504,1.0508,1.0495,1.0528,1.052,1.0503,1.0478,1.0519,1.0535,1.0541,1.0456,1.0456,1.0455,1.0454,0,0,1.0535,1.0529,1.0535,1.0536,1.0533,1.054,1.0555,1.056,1.0566,1.0566,1.0578,1.0588,1.0573,1.0573,1.056,1.0573,1.0612,1.0554,1.0554,1.0567,1.065,1.0664,1.0671,1.0601,1.0602,1.0603,1.0651,0,1.0577,1.0603,1.0591,1.0618,1.0629,1.0608,1.0621,1.062,1.0614,1.0622,1.0614,1.0622,1.0601,1.0601,1.0613,1.0605,1.0629,1.0601,1.0613,1.0613,1.0616,1.0679,1.0693,1.0739,1.0657,1.0658,1.0658,0,1.0629,1.0634,1.0663,1.0661,1.0664,1.0677,1.0682,1.0689,1.0688,1.0683,1.0685,1.0671,1.0685,1.0661,1.0681,1.0663,1.0667,1.0664,1.0665,1.0666,1.0639,1.0683,1.0752,1.076,1.0667,1.0667,1.0666,0,1.0673,1.0687,1.0707,1.0709,1.0705,1.0715,1.0714,1.0712,1.0717,1.0721,1.0724,1.0728,1.0731,1.0736,1.0723,1.0706,1.0746,1.0719,1.0742,1.0743,1.0751,1.0751,1.0824,1.0753,1.0753,1.0753,1.0752,0,1.0722,1.0741,1.0728,1.074,1.0762,1.0747,1.0769,1.0765,1.0764,1.0776,1.0757,1.0768,1.075,1.0759,1.0749,1.0769,1.077,1.0766,1.0764,1.0769,1.0769,1.0771,1.0768,1.0754,1.0754,1.0754,1.0753,0,1.0775,1.0767,1.0788,1.0784,1.0784,1.08,1.0796,1.0808,1.0801,1.0816,1.0819,1.0809,1.0819,1.0807,1.0815,1.0809,1.0836,1.0828,1.0837,1.0835,1.0859,1.0858,1.0936,1.0946,1.0868,1.0869,1.0869,0,1.0807,1.0822,1.0821,1.0828,1.0829,1.0841,1.0846,1.0833,1.084,1.0842,1.0853,1.0863,1.0869,1.0887,1.088,1.0887,1.0879,1.0907,1.088,1.0886,1.0882,1.0881,1.0883,1.0912,1.0913,1.0914,1.0914,0,1.0865,1.0862,1.0871,1.088,1.0888,1.0893,1.0897,1.0904,1.0891,1.0899,1.0911,1.0917,1.0927,1.0937,1.0943,1.0941,1.0926,1.0923,1.0929,1.0934,1.094,1.0939,1.0853,1.0921,1.092,1.092,1.0919,1.0919,1.091,1.0923,1.0926,1.0937,1.094,1.0945,1.0957,1.0953,1.0963,1.0972,1.0963,1.0978,1.0979,1.0985,1.0986,1.0997,1.0985,1.0993,1.0995,1.0998,1.1003,1.0938,1.0998,1.0997,1.0997,1.0997,1.0997,0,1.0969,1.097,1.0981,1.0989,1.0999,1.0986,1.0991,1.0999,1.1013,1.1016,1.1024,1.1039,1.1049,1.1044,1.1052,1.1063,1.1056,1.1065,1.1065,1.1065,1.1011,1.1006,1.1071,1.1071,1.1071,1.1071,1.1071,1.1071,1.1,1.1023,1.102,1.1044,1.1044,1.106,1.1065,1.107,1.1072,1.109,1.1099,1.1096,1.1096,1.1106,1.1115,1.1113,1.1118,1.113,1.1126,1.1076,1.1069,1.1062,1.1057,1.1131,1.1131,1.1179,1.1179,1.118]}]]